Time,TemperatureF,DewpointF,PressureIn,WindDirection,WindDirectionDegrees,WindSpeedMPH,WindSpeedGustMPH,Humidity,HourlyPrecipIn,Conditions,Clouds,dailyrainin,SoftwareType,DateUTC
2013-05-29 00:01:00,56.2,48.6,29.94,SW,225,4.9,9.2,76,0.00,,,0.00,WUHU216HW,2013-05-29 07:01:00,
2013-05-29 00:06:00,56.2,48.6,29.94,SW,225,4.0,7.2,76,0.00,,,0.00,WUHU216HW,2013-05-29 07:06:00,
2013-05-29 00:11:00,56.2,49.0,29.94,South,180,4.0,8.1,77,0.00,,,0.00,WUHU216HW,2013-05-29 07:11:00,
2013-05-29 00:16:00,56.2,48.6,29.94,SSW,203,4.3,8.1,76,0.00,,,0.00,WUHU216HW,2013-05-29 07:16:00,
2013-05-29 00:21:00,56.0,48.5,29.94,West,270,2.9,6.7,76,0.00,,,0.00,WUHU216HW,2013-05-29 07:21:00,
2013-05-29 00:26:00,55.8,48.6,29.94,WSW,248,4.7,8.5,77,0.00,,,0.00,WUHU216HW,2013-05-29 07:26:00,
2013-05-29 00:31:00,55.8,48.6,29.93,WSW,248,7.6,8.5,77,0.00,,,0.00,WUHU216HW,2013-05-29 07:31:00,
2013-05-29 00:36:00,55.6,48.5,29.94,SSW,203,4.3,8.5,77,0.00,,,0.00,WUHU216HW,2013-05-29 07:36:00,
2013-05-29 00:41:00,55.4,48.3,29.94,WSW,248,7.6,9.2,77,0.00,,,0.00,WUHU216HW,2013-05-29 07:41:00,
2013-05-29 00:46:00,55.4,48.3,29.93,WSW,248,6.3,9.2,77,0.00,,,0.00,WUHU216HW,2013-05-29 07:46:00,
2013-05-29 00:51:00,55.3,48.2,29.94,SW,225,2.9,6.3,77,0.00,,,0.00,WUHU216HW,2013-05-29 07:51:00,
2013-05-29 00:56:00,55.3,48.2,29.94,WSW,248,4.7,6.3,77,0.00,,,0.00,WUHU216HW,2013-05-29 07:56:00,
2013-05-29 01:01:00,55.3,48.2,29.93,WSW,248,4.9,5.8,77,0.00,,,0.00,WUHU216HW,2013-05-29 08:01:00,
2013-05-29 01:06:00,55.4,48.3,29.93,SW,225,4.7,7.6,77,0.00,,,0.00,WUHU216HW,2013-05-29 08:06:00,
2013-05-29 01:11:00,55.4,48.3,29.93,SSW,203,4.7,7.6,77,0.00,,,0.00,WUHU216HW,2013-05-29 08:11:00,
2013-05-29 01:16:00,55.4,48.3,29.92,WSW,248,2.5,5.8,77,0.00,,,0.00,WUHU216HW,2013-05-29 08:16:00,
2013-05-29 01:21:00,55.4,48.3,29.93,SW,225,2.2,6.0,77,0.00,,,0.00,WUHU216HW,2013-05-29 08:21:00,
2013-05-29 01:26:00,55.4,48.6,29.93,SW,225,5.8,6.9,78,0.00,,,0.00,WUHU216HW,2013-05-29 08:26:00,
2013-05-29 01:31:00,55.4,48.3,29.94,WSW,248,4.7,6.9,77,0.00,,,0.00,WUHU216HW,2013-05-29 08:31:00,
2013-05-29 01:36:00,55.4,48.3,29.94,WSW,248,4.7,7.6,77,0.00,,,0.00,WUHU216HW,2013-05-29 08:36:00,
2013-05-29 01:41:00,55.4,48.3,29.94,West,270,2.5,11.4,77,0.00,,,0.00,WUHU216HW,2013-05-29 08:41:00,
2013-05-29 01:46:00,55.4,48.3,29.94,WSW,248,6.9,11.4,77,0.00,,,0.00,WUHU216HW,2013-05-29 08:46:00,
2013-05-29 01:51:00,55.4,48.6,29.94,SSW,203,8.3,8.3,78,0.00,,,0.00,WUHU216HW,2013-05-29 08:51:00,
2013-05-29 01:56:00,55.4,48.6,29.93,WSW,248,7.4,8.3,78,0.00,,,0.00,WUHU216HW,2013-05-29 08:56:00,
2013-05-29 02:01:00,55.4,48.3,29.93,SW,225,4.5,8.3,77,0.00,,,0.00,WUHU216HW,2013-05-29 09:01:00,
2013-05-29 02:06:00,55.4,48.3,29.94,SW,225,3.8,7.2,77,0.00,,,0.00,WUHU216HW,2013-05-29 09:06:00,
2013-05-29 02:11:00,55.3,48.5,29.93,SSW,203,3.4,4.7,78,0.00,,,0.00,WUHU216HW,2013-05-29 09:11:00,
2013-05-29 02:16:00,55.3,48.2,29.92,SW,225,5.4,5.6,77,0.00,,,0.00,WUHU216HW,2013-05-29 09:16:00,
2013-05-29 02:21:00,55.1,48.0,29.92,SW,225,4.0,5.6,77,0.00,,,0.00,WUHU216HW,2013-05-29 09:21:00,
2013-05-29 02:26:00,55.1,48.3,29.91,SW,225,1.6,5.1,78,0.00,,,0.00,WUHU216HW,2013-05-29 09:26:00,
2013-05-29 02:31:00,55.1,48.0,29.92,SW,225,3.4,5.1,77,0.00,,,0.00,WUHU216HW,2013-05-29 09:31:00,
2013-05-29 02:36:00,55.1,48.0,29.92,South,180,2.5,4.9,77,0.00,,,0.00,WUHU216HW,2013-05-29 09:36:00,
2013-05-29 02:41:00,54.9,48.2,29.93,WSW,248,2.7,4.9,78,0.00,,,0.00,WUHU216HW,2013-05-29 09:41:00,
2013-05-29 02:46:00,54.9,47.8,29.93,SW,225,1.6,2.7,77,0.00,,,0.00,WUHU216HW,2013-05-29 09:46:00,
2013-05-29 02:51:00,54.9,47.8,29.92,WNW,293,4.7,6.5,77,0.00,,,0.00,WUHU216HW,2013-05-29 09:51:00,
2013-05-29 02:56:00,54.9,47.8,29.92,WSW,248,3.1,6.5,77,0.00,,,0.00,WUHU216HW,2013-05-29 09:56:00,
2013-05-29 03:01:00,55.1,48.0,29.92,WSW,248,4.0,5.1,77,0.00,,,0.00,WUHU216HW,2013-05-29 10:01:00,
2013-05-29 03:06:00,55.1,48.0,29.93,SW,225,5.8,8.3,77,0.00,,,0.00,WUHU216HW,2013-05-29 10:06:00,
2013-05-29 03:11:00,55.1,48.0,29.92,WSW,248,4.7,8.3,77,0.00,,,0.00,WUHU216HW,2013-05-29 10:11:00,
2013-05-29 03:16:00,55.1,48.3,29.92,WSW,248,4.0,6.9,78,0.00,,,0.00,WUHU216HW,2013-05-29 10:16:00,
2013-05-29 03:21:00,55.3,48.5,29.92,WSW,248,7.6,7.6,78,0.00,,,0.00,WUHU216HW,2013-05-29 10:21:00,
2013-05-29 03:26:00,55.3,48.5,29.92,West,270,4.7,7.6,78,0.00,,,0.00,WUHU216HW,2013-05-29 10:26:00,
2013-05-29 03:31:00,55.3,48.5,29.92,WSW,248,5.1,11.2,78,0.00,,,0.00,WUHU216HW,2013-05-29 10:31:00,
2013-05-29 03:36:00,55.4,48.6,29.92,WSW,248,8.3,11.2,78,0.00,,,0.00,WUHU216HW,2013-05-29 10:36:00,
2013-05-29 03:41:00,55.4,49.0,29.93,WSW,248,4.7,10.3,79,0.00,,,0.00,WUHU216HW,2013-05-29 10:41:00,
2013-05-29 03:46:00,55.4,48.6,29.93,West,270,6.7,9.2,78,0.00,,,0.00,WUHU216HW,2013-05-29 10:46:00,
2013-05-29 03:51:00,55.4,49.0,29.93,NW,315,8.7,8.7,79,0.00,,,0.00,WUHU216HW,2013-05-29 10:51:00,
2013-05-29 03:56:00,55.6,49.1,29.93,WSW,248,6.3,9.2,79,0.00,,,0.00,WUHU216HW,2013-05-29 10:56:00,
2013-05-29 04:01:00,55.4,49.0,29.93,South,180,2.7,9.2,79,0.00,,,0.00,WUHU216HW,2013-05-29 11:01:00,
2013-05-29 04:06:00,55.6,49.1,29.93,SSW,203,3.6,6.3,79,0.00,,,0.00,WUHU216HW,2013-05-29 11:06:00,
2013-05-29 04:11:00,55.6,48.8,29.93,South,180,6.0,6.3,78,0.00,,,0.00,WUHU216HW,2013-05-29 11:11:00,
2013-05-29 04:16:00,55.8,49.0,29.92,SW,225,4.7,6.3,78,0.00,,,0.00,WUHU216HW,2013-05-29 11:16:00,
2013-05-29 04:21:00,55.6,48.8,29.92,WSW,248,3.4,7.6,78,0.00,,,0.00,WUHU216HW,2013-05-29 11:21:00,
2013-05-29 04:26:00,55.8,49.0,29.92,SSW,203,6.0,7.6,78,0.00,,,0.00,WUHU216HW,2013-05-29 11:26:00,
2013-05-29 04:31:00,55.8,49.0,29.92,WSW,248,5.4,6.0,78,0.00,,,0.00,WUHU216HW,2013-05-29 11:31:00,
2013-05-29 04:36:00,55.8,49.0,29.92,WSW,248,3.6,6.0,78,0.00,,,0.00,WUHU216HW,2013-05-29 11:36:00,
2013-05-29 04:41:00,55.8,48.6,29.92,West,270,6.5,8.9,77,0.00,,,0.00,WUHU216HW,2013-05-29 11:41:00,
2013-05-29 04:46:00,55.8,48.6,29.92,SW,225,6.5,8.9,77,0.00,,,0.00,WUHU216HW,2013-05-29 11:46:00,
2013-05-29 04:51:00,55.8,48.6,29.92,SSW,203,5.6,8.9,77,0.00,,,0.00,WUHU216HW,2013-05-29 11:51:00,
2013-05-29 04:56:00,55.8,48.6,29.91,SSW,203,3.6,6.3,77,0.00,,,0.00,WUHU216HW,2013-05-29 11:56:00,
2013-05-29 05:01:00,55.8,48.3,29.92,West,270,4.5,8.5,76,0.00,,,0.00,WUHU216HW,2013-05-29 12:01:00,
2013-05-29 05:06:00,55.8,48.6,29.92,WSW,248,7.6,8.5,77,0.00,,,0.00,WUHU216HW,2013-05-29 12:06:00,
2013-05-29 05:11:00,55.8,48.6,29.92,WSW,248,3.8,11.2,77,0.00,,,0.00,WUHU216HW,2013-05-29 12:11:00,
2013-05-29 05:16:00,55.8,48.6,29.92,SW,225,6.0,11.2,77,0.00,,,0.00,WUHU216HW,2013-05-29 12:16:00,
2013-05-29 05:21:00,55.8,48.6,29.92,WSW,248,5.1,11.2,77,0.00,,,0.00,WUHU216HW,2013-05-29 12:21:00,
2013-05-29 05:26:00,55.8,48.6,29.92,SW,225,5.1,10.3,77,0.00,,,0.00,WUHU216HW,2013-05-29 12:26:00,
2013-05-29 05:31:00,55.8,48.6,29.92,SSW,203,6.0,8.5,77,0.00,,,0.00,WUHU216HW,2013-05-29 12:31:00,
2013-05-29 05:36:00,55.8,48.6,29.92,SSW,203,9.2,9.2,77,0.00,,,0.00,WUHU216HW,2013-05-29 12:36:00,
2013-05-29 05:41:00,56.0,48.8,29.92,West,270,5.8,9.2,77,0.00,,,0.00,WUHU216HW,2013-05-29 12:41:00,
2013-05-29 05:46:00,55.8,48.6,29.92,NW,315,3.6,9.2,77,0.00,,,0.00,WUHU216HW,2013-05-29 12:46:00,
2013-05-29 05:51:00,55.8,48.3,29.92,WSW,248,5.8,6.0,76,0.00,,,0.00,WUHU216HW,2013-05-29 12:51:00,
2013-05-29 05:56:00,55.8,48.6,29.92,WSW,248,2.7,6.0,77,0.00,,,0.00,WUHU216HW,2013-05-29 12:56:00,
2013-05-29 06:01:00,55.8,48.6,29.93,WSW,248,2.7,7.8,77,0.00,,,0.00,WUHU216HW,2013-05-29 13:01:00,
2013-05-29 06:06:00,55.8,48.6,29.93,SSW,203,2.5,7.8,77,0.00,,,0.00,WUHU216HW,2013-05-29 13:06:00,
2013-05-29 06:11:00,55.8,48.3,29.92,WSW,248,4.5,6.5,76,0.00,,,0.00,WUHU216HW,2013-05-29 13:11:00,
2013-05-29 06:16:00,56.0,48.5,29.93,West,270,1.8,6.5,76,0.00,,,0.00,WUHU216HW,2013-05-29 13:16:00,
2013-05-29 06:21:00,56.2,49.0,29.93,WNW,293,3.1,5.6,77,0.00,,,0.00,WUHU216HW,2013-05-29 13:21:00,
2013-05-29 06:26:00,56.2,48.6,29.93,WSW,248,4.3,6.3,76,0.00,,,0.00,WUHU216HW,2013-05-29 13:26:00,
2013-05-29 06:31:00,56.3,48.8,29.93,West,270,6.0,7.2,76,0.00,,,0.00,WUHU216HW,2013-05-29 13:31:00,
2013-05-29 06:36:00,56.5,49.0,29.94,WSW,248,6.3,7.2,76,0.00,,,0.00,WUHU216HW,2013-05-29 13:36:00,
2013-05-29 06:41:00,56.5,49.0,29.94,West,270,4.5,7.6,76,0.00,,,0.00,WUHU216HW,2013-05-29 13:41:00,
2013-05-29 06:46:00,56.7,49.1,29.93,WSW,248,5.1,8.3,76,0.00,,,0.00,WUHU216HW,2013-05-29 13:46:00,
2013-05-29 06:51:00,56.9,49.3,29.93,WSW,248,4.0,8.9,76,0.00,,,0.00,WUHU216HW,2013-05-29 13:51:00,
2013-05-29 06:56:00,57.1,49.5,29.93,West,270,4.7,8.9,76,0.00,,,0.00,WUHU216HW,2013-05-29 13:56:00,
2013-05-29 07:01:00,57.2,49.7,29.93,SSW,203,3.8,4.7,76,0.00,,,0.00,WUHU216HW,2013-05-29 14:01:00,
2013-05-29 07:06:00,57.2,49.3,29.93,WSW,248,4.0,5.4,75,0.00,,,0.00,WUHU216HW,2013-05-29 14:06:00,
2013-05-29 07:11:00,57.6,49.7,29.93,WSW,248,4.0,5.4,75,0.00,,,0.00,WUHU216HW,2013-05-29 14:11:00,
2013-05-29 07:16:00,58.0,50.0,29.93,WSW,248,3.8,8.5,75,0.00,,,0.00,WUHU216HW,2013-05-29 14:16:00,
2013-05-29 07:21:00,58.0,49.7,29.93,SW,225,5.1,8.5,74,0.00,,,0.00,WUHU216HW,2013-05-29 14:21:00,
2013-05-29 07:26:00,58.1,49.9,29.93,West,270,5.1,6.9,74,0.00,,,0.00,WUHU216HW,2013-05-29 14:26:00,
2013-05-29 07:31:00,58.3,50.0,29.94,SW,225,5.8,5.8,74,0.00,,,0.00,WUHU216HW,2013-05-29 14:31:00,
2013-05-29 07:35:00,58.5,49.9,29.94,WSW,248,4.0,6.7,73,0.00,,,0.00,WUHU216HW,2013-05-29 14:35:00,
2013-05-29 07:40:00,58.9,50.2,29.94,West,270,6.3,6.7,73,0.00,,,0.00,WUHU216HW,2013-05-29 14:40:00,
2013-05-29 07:45:00,59.0,50.4,29.94,SSW,203,2.9,6.9,73,0.00,,,0.00,WUHU216HW,2013-05-29 14:45:00,
2013-05-29 07:50:00,59.4,50.8,29.94,SW,225,4.3,6.9,73,0.00,,,0.00,WUHU216HW,2013-05-29 14:50:00,
2013-05-29 07:55:00,59.8,50.8,29.94,SW,225,4.7,5.1,72,0.00,,,0.00,WUHU216HW,2013-05-29 14:55:00,
2013-05-29 08:00:00,59.8,50.8,29.94,SSW,203,3.4,7.6,72,0.00,,,0.00,WUHU216HW,2013-05-29 15:00:00,
2013-05-29 08:05:00,59.8,50.4,29.94,WSW,248,4.7,7.6,71,0.00,,,0.00,WUHU216HW,2013-05-29 15:05:00,
2013-05-29 08:10:00,59.9,50.6,29.94,South,180,3.6,6.9,71,0.00,,,0.00,WUHU216HW,2013-05-29 15:10:00,
2013-05-29 08:15:00,60.1,50.8,29.94,West,270,3.8,5.4,71,0.00,,,0.00,WUHU216HW,2013-05-29 15:15:00,
2013-05-29 08:20:00,60.7,51.3,29.94,WSW,248,3.1,5.4,71,0.00,,,0.00,WUHU216HW,2013-05-29 15:20:00,
2013-05-29 08:25:00,61.0,51.3,29.95,WSW,248,4.0,5.4,70,0.00,,,0.00,WUHU216HW,2013-05-29 15:25:00,
2013-05-29 08:30:00,61.2,51.5,29.95,WSW,248,5.4,5.4,70,0.00,,,0.00,WUHU216HW,2013-05-29 15:30:00,
2013-05-29 08:35:00,61.4,51.6,29.95,WSW,248,4.7,5.4,70,0.00,,,0.00,WUHU216HW,2013-05-29 15:35:00,
2013-05-29 08:40:00,61.6,51.4,29.95,SW,225,6.3,6.5,69,0.00,,,0.00,WUHU216HW,2013-05-29 15:40:00,
2013-05-29 08:45:00,61.9,51.7,29.95,SSW,203,3.1,7.6,69,0.00,,,0.00,WUHU216HW,2013-05-29 15:45:00,
2013-05-29 08:50:00,62.1,51.8,29.95,WSW,248,2.9,8.5,69,0.00,,,0.00,WUHU216HW,2013-05-29 15:50:00,
2013-05-29 08:55:00,62.3,52.0,29.95,SSW,203,2.5,8.5,69,0.00,,,0.00,WUHU216HW,2013-05-29 15:55:00,
2013-05-29 09:00:00,62.3,52.0,29.95,WSW,248,2.2,7.2,69,0.00,,,0.00,WUHU216HW,2013-05-29 16:00:00,
2013-05-29 09:05:00,62.3,51.6,29.95,SSW,203,5.4,9.6,68,0.00,,,0.00,WUHU216HW,2013-05-29 16:05:00,
2013-05-29 09:10:00,62.5,52.2,29.95,WSW,248,7.4,9.6,69,0.00,,,0.00,WUHU216HW,2013-05-29 16:10:00,
2013-05-29 09:15:00,62.8,52.1,29.96,SW,225,5.4,7.4,68,0.00,,,0.00,WUHU216HW,2013-05-29 16:15:00,
2013-05-29 09:20:00,63.2,52.5,29.95,SW,225,3.1,6.9,68,0.00,,,0.00,WUHU216HW,2013-05-29 16:20:00,
2013-05-29 09:25:00,63.4,52.2,29.96,SW,225,5.1,6.9,67,0.00,,,0.00,WUHU216HW,2013-05-29 16:25:00,
2013-05-29 09:30:00,63.5,52.4,29.96,WSW,248,6.9,7.2,67,0.00,,,0.00,WUHU216HW,2013-05-29 16:30:00,
2013-05-29 09:35:00,63.7,52.6,29.96,SW,225,4.3,8.5,67,0.00,,,0.00,WUHU216HW,2013-05-29 16:35:00,
2013-05-29 09:40:00,63.9,52.8,29.96,WSW,248,4.9,8.5,67,0.00,,,0.00,WUHU216HW,2013-05-29 16:40:00,
2013-05-29 09:45:00,63.9,52.8,29.95,SSW,203,5.8,6.3,67,0.00,,,0.00,WUHU216HW,2013-05-29 16:45:00,
2013-05-29 09:50:00,64.1,52.9,29.95,WSW,248,3.4,9.8,67,0.00,,,0.00,WUHU216HW,2013-05-29 16:50:00,
2013-05-29 09:55:00,64.3,53.1,29.95,SW,225,3.4,9.8,67,0.00,,,0.00,WUHU216HW,2013-05-29 16:55:00,
2013-05-29 10:00:00,64.1,52.5,29.95,WSW,248,4.9,7.6,66,0.00,,,0.00,WUHU216HW,2013-05-29 17:00:00,
2013-05-29 10:05:00,64.1,52.5,29.95,SW,225,4.3,7.6,66,0.00,,,0.00,WUHU216HW,2013-05-29 17:05:00,
2013-05-29 10:10:00,63.9,52.8,29.96,WSW,248,3.4,8.5,67,0.00,,,0.00,WUHU216HW,2013-05-29 17:10:00,
2013-05-29 10:15:00,63.9,52.8,29.95,SW,225,6.5,8.5,67,0.00,,,0.00,WUHU216HW,2013-05-29 17:15:00,
2013-05-29 10:20:00,64.1,52.9,29.95,SW,225,8.7,8.7,67,0.00,,,0.00,WUHU216HW,2013-05-29 17:20:00,
2013-05-29 10:25:00,64.4,53.3,29.95,WSW,248,4.7,8.7,67,0.00,,,0.00,WUHU216HW,2013-05-29 17:25:00,
2013-05-29 10:30:00,64.8,53.6,29.95,WSW,248,8.1,8.3,67,0.00,,,0.00,WUHU216HW,2013-05-29 17:30:00,
2013-05-29 10:35:00,65.0,53.7,29.95,West,270,4.5,8.3,67,0.00,,,0.00,WUHU216HW,2013-05-29 17:35:00,
2013-05-29 10:40:00,65.3,54.1,29.95,SW,225,6.9,6.9,67,0.00,,,0.00,WUHU216HW,2013-05-29 17:40:00,
2013-05-29 10:45:00,65.9,54.2,29.96,WSW,248,8.3,8.3,66,0.00,,,0.00,WUHU216HW,2013-05-29 17:45:00,
2013-05-29 10:50:00,66.1,54.4,29.95,West,270,2.0,8.3,66,0.00,,,0.00,WUHU216HW,2013-05-29 17:50:00,
2013-05-29 10:55:00,65.9,53.7,29.95,SSW,203,6.5,8.3,65,0.00,,,0.00,WUHU216HW,2013-05-29 17:55:00,
2013-05-29 11:00:00,66.1,54.4,29.95,WSW,248,5.4,6.9,66,0.00,,,0.00,WUHU216HW,2013-05-29 18:00:00,
2013-05-29 11:05:00,66.2,54.1,29.95,SW,225,6.3,6.9,65,0.00,,,0.00,WUHU216HW,2013-05-29 18:05:00,
2013-05-29 11:10:00,66.6,54.8,29.94,WSW,248,4.7,6.3,66,0.00,,,0.00,WUHU216HW,2013-05-29 18:10:00,
2013-05-29 11:15:00,67.7,55.4,29.94,WSW,248,5.1,7.6,65,0.00,,,0.00,WUHU216HW,2013-05-29 18:15:00,
2013-05-29 11:20:00,68.0,55.4,29.94,NW,315,8.1,8.1,64,0.00,,,0.00,WUHU216HW,2013-05-29 18:20:00,
2013-05-29 11:25:00,68.2,55.1,29.95,SW,225,4.3,8.1,63,0.00,,,0.00,WUHU216HW,2013-05-29 18:25:00,
2013-05-29 11:30:00,68.4,55.3,29.95,West,270,5.8,8.1,63,0.00,,,0.00,WUHU216HW,2013-05-29 18:30:00,
2013-05-29 11:35:00,68.2,55.1,29.95,West,270,5.6,8.7,63,0.00,,,0.00,WUHU216HW,2013-05-29 18:35:00,
2013-05-29 11:40:00,68.2,54.7,29.94,West,270,5.1,8.7,62,0.00,,,0.00,WUHU216HW,2013-05-29 18:40:00,
2013-05-29 11:45:00,68.0,54.6,29.95,WNW,293,4.7,5.6,62,0.00,,,0.00,WUHU216HW,2013-05-29 18:45:00,
2013-05-29 11:50:00,68.2,54.7,29.95,SW,225,8.5,8.5,62,0.00,,,0.00,WUHU216HW,2013-05-29 18:50:00,
2013-05-29 11:55:00,68.8,55.6,29.94,WSW,248,3.8,8.5,63,0.00,,,0.00,WUHU216HW,2013-05-29 18:55:00,
2013-05-29 12:00:00,69.5,55.9,29.94,SW,225,6.9,6.9,62,0.00,,,0.00,WUHU216HW,2013-05-29 19:00:00,
2013-05-29 12:05:00,70.2,55.8,29.95,SW,225,4.9,6.9,60,0.00,,,0.00,WUHU216HW,2013-05-29 19:05:00,
2013-05-29 12:10:00,70.7,55.7,29.95,WSW,248,7.6,7.6,59,0.00,,,0.00,WUHU216HW,2013-05-29 19:10:00,
2013-05-29 12:15:00,70.9,55.9,29.94,WSW,248,4.9,7.6,59,0.00,,,0.00,WUHU216HW,2013-05-29 19:15:00,
2013-05-29 12:20:00,71.1,55.5,29.94,West,270,7.2,9.8,58,0.00,,,0.00,WUHU216HW,2013-05-29 19:20:00,
2013-05-29 12:25:00,71.5,55.9,29.94,SE,135,6.7,9.8,58,0.00,,,0.00,WUHU216HW,2013-05-29 19:25:00,
2013-05-29 12:30:00,71.6,56.1,29.94,SW,225,6.5,7.6,58,0.00,,,0.00,WUHU216HW,2013-05-29 19:30:00,
2013-05-29 12:35:00,71.1,55.1,29.94,WSW,248,6.9,7.6,57,0.00,,,0.00,WUHU216HW,2013-05-29 19:35:00,
2013-05-29 12:40:00,70.2,54.3,29.94,West,270,4.0,6.9,57,0.00,,,0.00,WUHU216HW,2013-05-29 19:40:00,
2013-05-29 12:45:00,69.7,54.3,29.94,WNW,293,13.2,13.2,58,0.00,,,0.00,WUHU216HW,2013-05-29 19:45:00,
2013-05-29 12:50:00,69.3,53.9,29.94,WSW,248,4.9,13.2,58,0.00,,,0.00,WUHU216HW,2013-05-29 19:50:00,
2013-05-29 12:55:00,69.5,54.5,29.94,West,270,5.6,9.8,59,0.00,,,0.00,WUHU216HW,2013-05-29 19:55:00,
2013-05-29 13:00:00,69.8,54.5,29.94,SW,225,10.5,10.5,58,0.00,,,0.00,WUHU216HW,2013-05-29 20:00:00,
2013-05-29 13:05:00,69.8,54.5,29.93,West,270,7.4,10.5,58,0.00,,,0.00,WUHU216HW,2013-05-29 20:05:00,
2013-05-29 13:10:00,69.8,53.5,29.93,NW,315,8.9,11.6,56,0.00,,,0.00,WUHU216HW,2013-05-29 20:10:00,
2013-05-29 13:15:00,70.0,53.6,29.93,West,270,9.6,12.1,56,0.00,,,0.00,WUHU216HW,2013-05-29 20:15:00,
2013-05-29 13:20:00,70.0,53.6,29.92,WSW,248,8.7,12.1,56,0.00,,,0.00,WUHU216HW,2013-05-29 20:20:00,
2013-05-29 13:25:00,69.8,53.5,29.92,WSW,248,4.9,9.2,56,0.00,,,0.00,WUHU216HW,2013-05-29 20:25:00,
2013-05-29 13:30:00,70.2,53.7,29.92,WNW,293,7.8,9.2,56,0.00,,,0.00,WUHU216HW,2013-05-29 20:30:00,
2013-05-29 13:35:00,70.7,54.7,29.92,WSW,248,5.4,8.9,57,0.00,,,0.00,WUHU216HW,2013-05-29 20:35:00,
2013-05-29 13:40:00,71.1,54.5,29.92,West,270,6.7,6.7,56,0.00,,,0.00,WUHU216HW,2013-05-29 20:40:00,
2013-05-29 13:45:00,71.3,53.7,29.92,West,270,5.4,10.3,54,0.00,,,0.00,WUHU216HW,2013-05-29 20:45:00,
2013-05-29 13:50:00,71.6,54.0,29.92,WSW,248,6.3,10.3,54,0.00,,,0.00,WUHU216HW,2013-05-29 20:50:00,
2013-05-29 13:55:00,72.0,54.9,29.91,WSW,248,2.7,6.3,55,0.00,,,0.00,WUHU216HW,2013-05-29 20:55:00,
2013-05-29 14:00:00,72.2,53.6,29.92,West,270,5.8,10.5,52,0.00,,,0.00,WUHU216HW,2013-05-29 21:00:00,
2013-05-29 14:05:00,72.0,52.8,29.91,WNW,293,6.0,10.5,51,0.00,,,0.00,WUHU216HW,2013-05-29 21:05:00,
2013-05-29 14:10:00,72.0,52.8,29.92,WNW,293,4.3,6.7,51,0.00,,,0.00,WUHU216HW,2013-05-29 21:10:00,
2013-05-29 14:15:00,72.7,53.5,29.91,WSW,248,6.7,11.0,51,0.00,,,0.00,WUHU216HW,2013-05-29 21:15:00,
2013-05-29 14:20:00,73.1,53.8,29.91,SSW,203,9.4,11.0,51,0.00,,,0.00,WUHU216HW,2013-05-29 21:20:00,
2013-05-29 14:25:00,73.4,53.6,29.91,West,270,6.9,9.4,50,0.00,,,0.00,WUHU216HW,2013-05-29 21:25:00,
2013-05-29 14:30:00,73.3,53.5,29.91,WSW,248,8.3,9.4,50,0.00,,,0.00,WUHU216HW,2013-05-29 21:30:00,
2013-05-29 14:35:00,73.4,53.0,29.91,WSW,248,7.8,8.3,49,0.00,,,0.00,WUHU216HW,2013-05-29 21:35:00,
2013-05-29 14:40:00,73.3,52.9,29.91,WNW,293,6.3,7.8,49,0.00,,,0.00,WUHU216HW,2013-05-29 21:40:00,
2013-05-29 14:45:00,73.1,52.8,29.91,SW,225,4.5,7.8,49,0.00,,,0.00,WUHU216HW,2013-05-29 21:45:00,
2013-05-29 14:50:00,73.4,52.5,29.91,WSW,248,7.2,7.2,48,0.00,,,0.00,WUHU216HW,2013-05-29 21:50:00,
2013-05-29 14:55:00,73.4,52.5,29.91,West,270,6.3,7.2,48,0.00,,,0.00,WUHU216HW,2013-05-29 21:55:00,
2013-05-29 15:00:00,73.3,52.3,29.91,WSW,248,5.4,9.8,48,0.00,,,0.00,WUHU216HW,2013-05-29 22:00:00,
2013-05-29 15:05:00,73.4,52.5,29.91,WSW,248,6.5,9.8,48,0.00,,,0.00,WUHU216HW,2013-05-29 22:05:00,
2013-05-29 15:10:00,73.8,52.2,29.91,NW,315,4.5,6.5,47,0.00,,,0.00,WUHU216HW,2013-05-29 22:10:00,
2013-05-29 15:15:00,73.8,51.6,29.91,WSW,248,7.4,7.4,46,0.00,,,0.00,WUHU216HW,2013-05-29 22:15:00,
2013-05-29 15:20:00,74.3,52.1,29.90,WSW,248,3.8,7.8,46,0.00,,,0.00,WUHU216HW,2013-05-29 22:20:00,
2013-05-29 15:25:00,74.5,52.3,29.91,SW,225,6.9,8.5,46,0.00,,,0.00,WUHU216HW,2013-05-29 22:25:00,
2013-05-29 15:30:00,74.9,52.0,29.91,West,270,6.3,8.5,45,0.00,,,0.00,WUHU216HW,2013-05-29 22:30:00,
2013-05-29 15:35:00,74.9,51.4,29.90,SW,225,9.4,9.4,44,0.00,,,0.00,WUHU216HW,2013-05-29 22:35:00,
2013-05-29 15:40:00,75.1,51.6,29.90,WSW,248,6.3,9.4,44,0.00,,,0.00,WUHU216HW,2013-05-29 22:40:00,
2013-05-29 15:45:00,74.9,50.9,29.90,WSW,248,4.7,9.4,43,0.00,,,0.00,WUHU216HW,2013-05-29 22:45:00,
2013-05-29 15:50:00,74.7,50.0,29.90,WNW,293,7.6,7.6,42,0.00,,,0.00,WUHU216HW,2013-05-29 22:50:00,
2013-05-29 15:55:00,74.7,50.7,29.90,SSW,203,9.6,9.6,43,0.00,,,0.00,WUHU216HW,2013-05-29 22:55:00,
2013-05-29 16:00:00,74.9,50.9,29.90,SW,225,6.7,9.6,43,0.00,,,0.00,WUHU216HW,2013-05-29 23:00:00,
2013-05-29 16:05:00,75.1,50.4,29.89,SSW,203,9.2,12.1,42,0.00,,,0.00,WUHU216HW,2013-05-29 23:05:00,
2013-05-29 16:10:00,75.1,50.4,29.89,SSW,203,11.9,12.1,42,0.00,,,0.00,WUHU216HW,2013-05-29 23:10:00,
2013-05-29 16:15:00,74.9,49.6,29.90,West,270,8.1,11.9,41,0.00,,,0.00,WUHU216HW,2013-05-29 23:15:00,
2013-05-29 16:20:00,74.9,49.6,29.90,WSW,248,8.5,11.4,41,0.00,,,0.00,WUHU216HW,2013-05-29 23:20:00,
2013-05-29 16:25:00,74.9,49.6,29.89,SSW,203,8.3,11.4,41,0.00,,,0.00,WUHU216HW,2013-05-29 23:25:00,
2013-05-29 16:30:00,75.1,50.4,29.89,NW,315,10.3,11.0,42,0.00,,,0.00,WUHU216HW,2013-05-29 23:30:00,
2013-05-29 16:35:00,75.1,50.4,29.89,SW,225,4.9,10.3,42,0.00,,,0.00,WUHU216HW,2013-05-29 23:35:00,
2013-05-29 16:40:00,74.9,50.9,29.90,South,180,8.3,14.1,43,0.00,,,0.00,WUHU216HW,2013-05-29 23:40:00,
2013-05-29 16:45:00,74.9,51.4,29.90,SW,225,7.8,14.1,44,0.00,,,0.00,WUHU216HW,2013-05-29 23:45:00,
2013-05-29 16:50:00,75.1,51.6,29.90,West,270,5.1,11.0,44,0.00,,,0.00,WUHU216HW,2013-05-29 23:50:00,
2013-05-29 16:55:00,74.5,51.1,29.90,WSW,248,7.8,13.9,44,0.00,,,0.00,WUHU216HW,2013-05-29 23:55:00,
2013-05-29 17:00:00,74.3,51.0,29.90,SSW,203,6.7,13.9,44,0.00,,,0.00,WUHU216HW,2013-05-30 00:00:00,
2013-05-29 17:05:00,74.2,51.4,29.90,SW,225,10.1,14.8,45,0.00,,,0.00,WUHU216HW,2013-05-30 00:05:00,
2013-05-29 17:10:00,74.0,51.2,29.90,South,180,5.6,14.8,45,0.00,,,0.00,WUHU216HW,2013-05-30 00:10:00,
2013-05-29 17:15:00,74.0,51.2,29.90,SW,225,12.1,12.1,45,0.00,,,0.00,WUHU216HW,2013-05-30 00:15:00,
2013-05-29 17:20:00,74.0,51.2,29.90,SSW,203,11.4,12.1,45,0.00,,,0.00,WUHU216HW,2013-05-30 00:20:00,
2013-05-29 17:25:00,73.8,51.0,29.90,WSW,248,10.7,11.4,45,0.00,,,0.00,WUHU216HW,2013-05-30 00:25:00,
2013-05-29 17:30:00,73.1,50.9,29.90,SW,225,8.7,10.7,46,0.00,,,0.00,WUHU216HW,2013-05-30 00:30:00,
2013-05-29 17:35:00,72.7,51.2,29.90,WSW,248,10.7,10.7,47,0.00,,,0.00,WUHU216HW,2013-05-30 00:35:00,
2013-05-29 17:40:00,72.7,51.2,29.90,North,0,0.0,10.7,47,0.00,,,0.00,WUHU216HW,2013-05-30 00:40:00,
2013-05-29 17:45:00,72.4,50.9,29.90,SSW,203,8.3,10.7,47,0.00,,,0.00,WUHU216HW,2013-05-30 00:45:00,
2013-05-29 17:50:00,72.4,51.5,29.90,WSW,248,7.4,11.2,48,0.00,,,0.00,WUHU216HW,2013-05-30 00:50:00,
2013-05-29 17:55:00,72.0,51.1,29.90,SW,225,11.6,11.6,48,0.00,,,0.00,WUHU216HW,2013-05-30 00:55:00,
2013-05-29 18:00:00,72.0,51.1,29.90,SE,135,11.0,11.6,48,0.00,,,0.00,WUHU216HW,2013-05-30 01:00:00,
2013-05-29 18:05:00,72.0,51.1,29.90,SW,225,11.6,11.6,48,0.00,,,0.00,WUHU216HW,2013-05-30 01:05:00,
2013-05-29 18:10:00,71.5,51.3,29.90,SSW,203,5.8,11.6,49,0.00,,,0.00,WUHU216HW,2013-05-30 01:10:00,
2013-05-29 18:15:00,71.1,50.9,29.90,North,0,0.0,11.4,49,0.00,,,0.00,WUHU216HW,2013-05-30 01:15:00,
2013-05-29 18:20:00,70.9,51.4,29.90,North,0,0.0,5.8,50,0.00,,,0.00,WUHU216HW,2013-05-30 01:20:00,
2013-05-29 18:25:00,70.6,51.0,29.90,North,0,0.0,0.0,50,0.00,,,0.00,WUHU216HW,2013-05-30 01:25:00,
2013-05-29 18:30:00,70.4,50.9,29.90,North,0,0.0,0.0,50,0.00,,,0.00,WUHU216HW,2013-05-30 01:30:00,
2013-05-29 18:35:00,70.2,50.8,29.90,North,0,0.0,0.0,50,0.00,,,0.00,WUHU216HW,2013-05-30 01:35:00,
2013-05-29 18:40:00,70.0,51.0,29.90,North,0,0.0,0.0,51,0.00,,,0.00,WUHU216HW,2013-05-30 01:40:00,
2013-05-29 18:45:00,69.8,50.4,29.90,North,0,0.0,0.0,50,0.00,,,0.00,WUHU216HW,2013-05-30 01:45:00,
2013-05-29 18:50:00,69.1,49.8,29.90,North,0,0.0,0.0,50,0.00,,,0.00,WUHU216HW,2013-05-30 01:50:00,
2013-05-29 18:55:00,68.6,49.2,29.90,North,0,0.0,0.0,50,0.00,,,0.00,WUHU216HW,2013-05-30 01:55:00,
2013-05-29 19:00:00,68.2,49.4,29.90,North,0,0.0,0.0,51,0.00,,,0.00,WUHU216HW,2013-05-30 02:00:00,
2013-05-29 19:05:00,68.0,49.2,29.90,North,0,0.0,0.0,51,0.00,,,0.00,WUHU216HW,2013-05-30 02:05:00,
2013-05-29 19:10:00,67.9,49.6,29.90,North,0,0.0,0.0,52,0.00,,,0.00,WUHU216HW,2013-05-30 02:10:00,
2013-05-29 19:15:00,67.5,49.2,29.90,North,0,0.0,0.0,52,0.00,,,0.00,WUHU216HW,2013-05-30 02:15:00,
2013-05-29 19:20:00,67.0,49.2,29.90,North,0,0.0,0.0,53,0.00,,,0.00,WUHU216HW,2013-05-30 02:20:00,
2013-05-29 19:25:00,66.6,49.4,29.90,North,0,0.0,0.0,54,0.00,,,0.00,WUHU216HW,2013-05-30 02:25:00,
2013-05-29 19:30:00,66.2,49.2,29.90,SSW,203,6.3,6.3,54,0.00,,,0.00,WUHU216HW,2013-05-30 02:30:00,
2013-05-29 19:35:00,66.1,49.0,29.90,WSW,248,5.4,8.3,54,0.00,,,0.00,WUHU216HW,2013-05-30 02:35:00,
2013-05-29 19:40:00,65.9,49.2,29.90,WSW,248,4.7,8.7,55,0.00,,,0.00,WUHU216HW,2013-05-30 02:40:00,
2013-05-29 19:44:00,65.2,48.5,29.90,WSW,248,3.6,9.6,55,0.00,,,0.00,WUHU216HW,2013-05-30 02:44:00,
2013-05-29 19:49:00,64.8,48.6,29.91,South,180,6.9,9.6,56,0.00,,,0.00,WUHU216HW,2013-05-30 02:49:00,
2013-05-29 19:55:00,64.6,49.0,29.91,SSW,203,4.9,7.6,57,0.00,,,0.00,WUHU216HW,2013-05-30 02:55:00,
2013-05-29 19:59:00,64.1,49.0,29.91,SW,225,6.3,7.8,58,0.00,,,0.00,WUHU216HW,2013-05-30 02:59:00,
2013-05-29 20:04:00,63.4,48.2,29.91,SW,225,4.7,7.8,58,0.00,,,0.00,WUHU216HW,2013-05-30 03:04:00,
2013-05-29 20:09:00,63.0,48.0,29.91,SW,225,6.9,7.8,58,0.00,,,0.00,WUHU216HW,2013-05-30 03:09:00,
2013-05-29 20:14:00,62.6,48.2,29.90,SW,225,2.5,6.9,59,0.00,,,0.00,WUHU216HW,2013-05-30 03:14:00,
2013-05-29 20:19:00,62.3,48.7,29.90,WSW,248,7.6,7.6,61,0.00,,,0.00,WUHU216HW,2013-05-30 03:19:00,
2013-05-29 20:24:00,61.7,48.3,29.91,SSW,203,5.4,7.6,61,0.00,,,0.00,WUHU216HW,2013-05-30 03:24:00,
2013-05-29 20:29:00,61.4,47.9,29.91,SW,225,3.8,7.8,61,0.00,,,0.00,WUHU216HW,2013-05-30 03:29:00,
2013-05-29 20:34:00,60.8,47.8,29.91,South,180,6.3,7.8,62,0.00,,,0.00,WUHU216HW,2013-05-30 03:34:00,
2013-05-29 20:39:00,60.5,47.9,29.91,SW,225,5.8,6.3,63,0.00,,,0.00,WUHU216HW,2013-05-30 03:39:00,
2013-05-29 20:44:00,60.1,47.9,29.91,WSW,248,4.5,7.6,64,0.00,,,0.00,WUHU216HW,2013-05-30 03:44:00,
2013-05-29 20:49:00,59.9,47.4,29.91,SSW,203,4.7,7.6,63,0.00,,,0.00,WUHU216HW,2013-05-30 03:49:00,
2013-05-29 20:54:00,59.6,47.3,29.91,SW,225,4.7,4.7,64,0.00,,,0.00,WUHU216HW,2013-05-30 03:54:00,
2013-05-29 20:59:00,59.4,47.2,29.91,WSW,248,5.4,5.4,64,0.00,,,0.00,WUHU216HW,2013-05-30 03:59:00,
2013-05-29 21:01:00,59.4,47.2,29.91,WSW,248,1.8,5.4,64,0.00,,,0.00,WUHU216HW,2013-05-30 04:01:00,
2013-05-29 21:06:00,59.2,47.0,29.91,SW,225,3.1,5.4,64,0.00,,,0.00,WUHU216HW,2013-05-30 04:06:00,
2013-05-29 21:11:00,59.0,46.8,29.91,SW,225,1.1,4.7,64,0.00,,,0.00,WUHU216HW,2013-05-30 04:11:00,
2013-05-29 21:16:00,58.7,46.5,29.91,WSW,248,6.0,7.2,64,0.00,,,0.00,WUHU216HW,2013-05-30 04:16:00,
2013-05-29 21:21:00,58.5,47.5,29.92,SW,225,5.6,7.2,67,0.00,,,0.00,WUHU216HW,2013-05-30 04:21:00,
2013-05-29 21:26:00,58.3,47.0,29.92,SW,225,3.4,6.3,66,0.00,,,0.00,WUHU216HW,2013-05-30 04:26:00,
2013-05-29 21:31:00,58.0,47.1,29.92,SE,135,4.3,5.6,67,0.00,,,0.00,WUHU216HW,2013-05-30 04:31:00,
2013-05-29 21:36:00,57.8,46.9,29.92,SW,225,4.7,6.3,67,0.00,,,0.00,WUHU216HW,2013-05-30 04:36:00,
2013-05-29 21:41:00,57.6,46.7,29.92,WSW,248,4.7,6.9,67,0.00,,,0.00,WUHU216HW,2013-05-30 04:41:00,
2013-05-29 21:46:00,57.2,46.7,29.92,SW,225,3.4,6.9,68,0.00,,,0.00,WUHU216HW,2013-05-30 04:46:00,
2013-05-29 21:51:00,57.2,47.2,29.92,WSW,248,5.6,5.8,69,0.00,,,0.00,WUHU216HW,2013-05-30 04:51:00,
2013-05-29 21:56:00,56.9,46.8,29.93,WSW,248,4.7,5.6,69,0.00,,,0.00,WUHU216HW,2013-05-30 04:56:00,
2013-05-29 22:01:00,56.7,46.6,29.93,WSW,248,3.1,5.4,69,0.00,,,0.00,WUHU216HW,2013-05-30 05:01:00,
2013-05-29 22:06:00,56.5,46.4,29.94,WSW,248,5.4,5.6,69,0.00,,,0.00,WUHU216HW,2013-05-30 05:06:00,
2013-05-29 22:11:00,56.3,46.7,29.94,SW,225,4.3,5.6,70,0.00,,,0.00,WUHU216HW,2013-05-30 05:11:00,
2013-05-29 22:16:00,56.2,46.9,29.94,South,180,2.9,4.9,71,0.00,,,0.00,WUHU216HW,2013-05-30 05:16:00,
2013-05-29 22:21:00,56.0,46.4,29.94,SSW,203,3.6,4.7,70,0.00,,,0.00,WUHU216HW,2013-05-30 05:21:00,
2013-05-29 22:26:00,55.8,46.5,29.94,SW,225,7.6,7.6,71,0.00,,,0.00,WUHU216HW,2013-05-30 05:26:00,
2013-05-29 22:31:00,55.6,46.5,29.94,South,180,5.1,7.6,71,0.00,,,0.00,WUHU216HW,2013-05-30 05:31:00,
2013-05-29 22:36:00,55.4,46.3,29.94,SW,225,6.3,6.9,71,0.00,,,0.00,WUHU216HW,2013-05-30 05:36:00,
2013-05-29 22:41:00,55.4,46.6,29.94,WSW,248,4.7,6.3,72,0.00,,,0.00,WUHU216HW,2013-05-30 05:41:00,
2013-05-29 22:46:00,55.1,46.3,29.94,WSW,248,4.7,6.9,72,0.00,,,0.00,WUHU216HW,2013-05-30 05:46:00,
2013-05-29 22:51:00,55.1,46.3,29.94,WSW,248,4.5,6.9,72,0.00,,,0.00,WUHU216HW,2013-05-30 05:51:00,
2013-05-29 22:56:00,54.7,46.3,29.94,WSW,248,4.3,7.6,73,0.00,,,0.00,WUHU216HW,2013-05-30 05:56:00,
2013-05-29 23:01:00,54.5,46.1,29.94,SW,225,2.5,7.6,73,0.00,,,0.00,WUHU216HW,2013-05-30 06:01:00,
2013-05-29 23:06:00,54.5,46.1,29.94,SSW,203,2.7,4.0,73,0.00,,,0.00,WUHU216HW,2013-05-30 06:06:00,
2013-05-29 23:11:00,54.4,45.9,29.94,SW,225,4.9,4.9,73,0.00,,,0.00,WUHU216HW,2013-05-30 06:11:00,
2013-05-29 23:16:00,54.4,45.9,29.94,West,270,4.0,4.9,73,0.00,,,0.00,WUHU216HW,2013-05-30 06:16:00,
2013-05-29 23:21:00,54.2,45.7,29.94,WSW,248,4.0,4.3,73,0.00,,,0.00,WUHU216HW,2013-05-30 06:21:00,
2013-05-29 23:26:00,54.2,46.1,29.94,WSW,248,4.7,4.7,74,0.00,,,0.00,WUHU216HW,2013-05-30 06:26:00,
2013-05-29 23:31:00,54.0,45.9,29.94,SE,135,3.6,4.9,74,0.00,,,0.00,WUHU216HW,2013-05-30 06:31:00,
2013-05-29 23:36:00,54.0,45.9,29.94,SW,225,2.5,4.9,74,0.00,,,0.00,WUHU216HW,2013-05-30 06:36:00,
2013-05-29 23:41:00,53.8,45.7,29.94,WNW,293,3.1,4.7,74,0.00,,,0.00,WUHU216HW,2013-05-30 06:41:00,
2013-05-29 23:46:00,53.6,45.5,29.94,WSW,248,1.6,4.3,74,0.00,,,0.00,WUHU216HW,2013-05-30 06:46:00,
2013-05-29 23:51:00,53.6,45.9,29.94,WSW,248,2.7,5.8,75,0.00,,,0.00,WUHU216HW,2013-05-30 06:51:00,
2013-05-29 23:56:00,53.6,45.9,29.94,West,270,2.9,5.8,75,0.00,,,0.00,WUHU216HW,2013-05-30 06:56:00,